[[{"header":{"parameterUnit":"m.s-1","parameterCategory":1,"la1":30.2991,"la2":30.254,"lo1":-89.0895,"lo2":-89.0444,"dy":0.0017,"dx":0.0017,"nx":28,"ny":28,"refTime":"2023-09-01T03:00:00:Z","depth":0,"parameterNumber":2,"parameterNumberName":"U-component_of_WINDS"},"data":[0,0,0,0,0,0,0,0,0,0,0,0,0,0,0,0,0,0,0,0,0,0,0,0,0,0,0,0,0,0,0,0,0,0,0,0,0,0,0,0,0,0,0,0,0,0,0,0,0,0,0,0,0,0,0,0,0,0,-0.4003,-0.4002,0,-0.388,-0.3879,-0.3877,-0.3832,-0.3832,-0.3833,-0.3833,-0.3704,-0.37,-0.3697,0,0,0,0,0,0,0,0,0,0,0,0,0,-0.4194,-0.4191,-0.4003,-0.4001,-0.4,-0.3881,-0.3879,-0.3877,-0.3832,-0.3832,-0.3833,-0.3833,-0.3705,-0.3701,-0.3696,0,0,0,0,0,0,0,0,0,0,0,0,0,-0.4095,-0.419,-0.4003,-0.3963,-0.3958,-0.3881,-0.3879,-0.3877,-0.3832,-0.3832,-0.3833,-0.3833,-0.3707,-0.3701,-0.3696,-0.3648,0,0,-0.3678,-0.3676,0,0,0,0,0,0,0,0,-0.4101,-0.4088,-0.397,-0.3966,-0.396,-0.3872,-0.3899,-0.38,-0.3832,-0.388,-0.3833,-0.3834,-0.3759,-0.3749,-0.3725,-0.3642,-0.3637,-0.3678,-0.3674,-0.3672,-0.367,0,0,0,0,0,0,0,-0.4108,-0.4093,-0.3954,-0.3969,-0.3962,-0.395,-0.3936,-0.388,-0.3817,-0.3875,-0.3872,-0.3858,-0.3756,-0.373,-0.3721,-0.3635,-0.3678,-0.3673,-0.3669,-0.3667,-0.3506,-0.3505,0,0,0,0,0,0,-0.4122,-0.4099,-0.3958,-0.3951,-0.4034,-0.3946,-0.3931,-0.39,-0.3818,-0.3806,-0.3858,-0.3856,-0.374,-0.3728,-0.3717,-0.3655,-0.3672,-0.3666,-0.3663,-0.3507,-0.3506,-0.3505,0,0,0,0,0,0,-0.4126,-0.411,-0.3963,-0.4024,-0.4004,-0.3942,-0.3907,-0.3897,-0.3871,-0.3805,-0.3793,-0.3843,-0.374,-0.3725,-0.3666,-0.365,-0.3664,-0.3659,-0.3508,-0.3506,-0.3505,-0.3533,0,0,0,0,0,0,-0.4132,-0.4112,-0.4094,-0.4024,-0.4001,-0.3916,-0.3906,-0.3894,-0.3862,-0.3859,-0.3788,-0.3776,-0.3739,-0.3674,-0.366,-0.3643,-0.3654,-0.3509,-0.3507,-0.3506,-0.3533,-0.3533,-0.3533,0,0,0,0,0,-0.4139,-0.4106,-0.4093,-0.4077,-0.3978,-0.3915,-0.3902,-0.3861,-0.3861,-0.3842,-0.3799,-0.3779,-0.3654,-0.3669,-0.3652,-0.3633,-0.3509,-0.3508,-0.3506,-0.3533,-0.3533,-0.3533,0,0,0,0,0,0,-0.4175,-0.4096,-0.4081,-0.4025,-0.3977,-0.3907,-0.3882,-0.3862,-0.3812,-0.3811,-0.3761,-0.3745,-0.369,-0.3655,-0.3673,-0.3582,-0.358,-0.3575,-0.3607,-0.3606,-0.3606,-0.3615,-0.3649,0,0,0,0,0,-0.4177,-0.4133,-0.4066,-0.4023,-0.4,-0.3945,-0.3916,-0.3889,-0.3836,-0.3815,-0.3768,-0.3717,-0.3667,-0.3634,-0.3584,-0.3528,-0.3511,-0.3506,-0.3506,-0.3506,-0.3502,-0.3468,-0.3465,-0.3498,-0.3498,-0.3498,0,0,-0.418,-0.4131,-0.4106,-0.4029,-0.3989,-0.3943,-0.3928,-0.3881,-0.3847,-0.3808,-0.375,-0.3713,-0.3653,-0.3595,-0.3567,-0.3564,-0.3489,-0.3503,-0.3504,-0.35,-0.3466,-0.3463,-0.346,-0.3497,-0.3497,-0.3498,0,0,-0.4161,-0.4121,-0.408,-0.404,-0.3979,-0.3943,-0.3933,-0.3866,-0.3841,-0.3781,-0.3751,-0.3708,-0.3622,-0.3581,-0.3548,-0.3513,-0.3492,-0.3498,-0.3496,-0.3464,-0.3462,-0.3459,-0.3446,-0.3442,-0.3494,-0.3494,-0.3494,0,-0.4172,-0.4104,-0.4062,-0.4016,-0.3982,-0.3946,-0.3904,-0.3866,-0.3792,-0.3769,-0.3767,-0.3658,-0.3615,-0.3546,-0.3537,-0.3512,-0.3499,-0.3506,-0.3466,-0.3463,-0.3459,-0.3446,-0.3442,-0.3495,-0.3495,-0.3495,-0.3495,0,-0.412,-0.4073,-0.4047,-0.3977,-0.394,-0.3897,-0.3847,-0.3814,-0.379,-0.3753,-0.3692,-0.3639,-0.3577,-0.3559,-0.3534,-0.3486,-0.3486,-0.3476,-0.3473,-0.3458,-0.3445,-0.344,-0.3497,-0.3496,-0.3496,-0.3496,0,0,-0.4122,-0.4029,-0.402,-0.3988,-0.3917,-0.3879,-0.3833,-0.3774,-0.3747,-0.3696,-0.3655,-0.3583,-0.3573,-0.3536,-0.3505,-0.3477,-0.3452,-0.347,-0.3468,-0.3468,-0.3395,-0.3404,-0.3399,-0.3438,-0.3437,-0.3436,-0.34,0,-0.4095,-0.4012,-0.3972,-0.3907,-0.3862,-0.3826,-0.3786,-0.3738,-0.3702,-0.3658,-0.3618,-0.3567,-0.3558,-0.3535,-0.3506,-0.3462,-0.3437,-0.3464,-0.3398,-0.3397,-0.3415,-0.3392,-0.3401,-0.337,-0.3395,-0.3394,-0.3393,0,-0.4052,-0.4003,-0.3933,-0.3867,-0.3847,-0.3812,-0.3753,-0.3712,-0.3656,-0.3632,-0.359,-0.3561,-0.3509,-0.351,-0.3438,-0.3457,-0.3427,-0.3402,-0.3399,-0.3392,-0.3394,-0.3384,-0.3359,-0.3355,-0.3385,-0.3385,-0.3386,0,-0.406,-0.3976,-0.3923,-0.3897,-0.3819,-0.3795,-0.3761,-0.3705,-0.3672,-0.362,-0.3598,-0.354,-0.3509,-0.3464,-0.342,-0.3424,-0.3351,-0.3349,-0.3329,-0.333,-0.3315,-0.3317,-0.3286,-0.3297,-0.3297,-0.3297,-0.3297,0,-0.4034,-0.3993,-0.3926,-0.3894,-0.3846,-0.38,-0.3753,-0.3716,-0.3667,-0.3626,-0.3591,-0.3552,-0.3496,-0.345,-0.3414,-0.3359,-0.3345,-0.3323,-0.3314,-0.3327,-0.3329,-0.3307,-0.3308,-0.3296,-0.3296,-0.3296,-0.3296,0,-0.4036,-0.399,-0.393,-0.3861,-0.3842,-0.381,-0.3751,-0.3717,-0.3679,-0.3628,-0.3613,-0.3553,-0.3497,-0.3448,-0.3374,-0.335,-0.3293,-0.3282,-0.3313,-0.3308,-0.3291,-0.3293,-0.3245,-0.3235,-0.3253,-0.3253,-0.3253,0,-0.4022,-0.399,-0.3917,-0.3888,-0.3855,-0.3808,-0.3773,-0.3726,-0.3691,-0.3624,-0.3598,-0.354,-0.3491,-0.3403,-0.3352,-0.3295,-0.3282,-0.3269,-0.3273,-0.3286,-0.3281,-0.3284,-0.328,-0.3269,-0.3269,-0.3269,-0.3269,0,-0.4003,-0.3981,-0.3934,-0.3878,-0.3839,-0.3792,-0.3744,-0.3722,-0.3665,-0.3627,-0.357,-0.3532,-0.3457,-0.3399,-0.3336,-0.3299,-0.3274,-0.3268,-0.326,-0.3273,-0.3292,-0.3281,-0.3313,-0.327,-0.327,-0.3269,-0.3269,-0.3269,-0.3996,-0.3965,-0.391,-0.3858,-0.3817,-0.3773,-0.3738,-0.3696,-0.3648,-0.3584,-0.3558,-0.35,-0.3443,-0.3356,-0.3319,-0.3271,-0.3267,-0.3256,-0.3253,-0.3251,-0.3253,-0.3299,-0.326,-0.326,-0.3259,-0.3259,-0.3259,0,-0.3975,-0.3937,-0.389,-0.3825,-0.3783,-0.3765,-0.371,-0.3677,-0.3626,-0.3576,-0.3528,-0.3462,-0.3406,-0.335,-0.329,-0.3263,-0.325,-0.3249,-0.325,-0.3242,-0.3261,-0.3273,-0.326,-0.326,-0.326,-0.326,-0.326,-0.326,-0.3959,-0.3906,-0.3878,-0.3804,-0.3765,-0.3709,-0.368,-0.3639,-0.3598,-0.3526,-0.348,-0.3444,-0.3391,-0.3327,-0.3273,-0.3258,-0.3238,-0.324,-0.3222,-0.324,-0.3241,-0.3241,-0.3253,-0.3236,-0.3236,-0.3207,-0.3206,-0.3206]},{"header":{"parameterUnit":"m.s-1","parameterCategory":1,"la1":30.2991,"la2":30.254,"lo1":-89.0895,"lo2":-89.0444,"dy":0.0017,"dx":0.0017,"nx":28,"ny":28,"refTime":"2023-09-01T03:00:00:Z","depth":0,"parameterNumber":3,"parameterNumberName":"V-component_of_WINDS"},"data":[0,0,0,0,0,0,0,0,0,0,0,0,0,0,0,0,0,0,0,0,0,0,0,0,0,0,0,0,0,0,0,0,0,0,0,0,0,0,0,0,0,0,0,0,0,0,0,0,0,0,0,0,0,0,0,0,0,0,-0.3521,-0.3522,0,-0.3622,-0.3623,-0.3624,-0.3668,-0.3668,-0.3668,-0.3667,-0.3771,-0.3773,-0.3776,0,0,0,0,0,0,0,0,0,0,0,0,0,-0.3365,-0.3367,-0.352,-0.3522,-0.3523,-0.3621,-0.3623,-0.3624,-0.3668,-0.3668,-0.3668,-0.3667,-0.377,-0.3773,-0.3776,0,0,0,0,0,0,0,0,0,0,0,0,0,-0.3446,-0.3368,-0.352,-0.3557,-0.3561,-0.3621,-0.3623,-0.3625,-0.3668,-0.3668,-0.3668,-0.3667,-0.3768,-0.3773,-0.3777,-0.3808,0,0,-0.379,-0.3792,0,0,0,0,0,0,0,0,-0.3441,-0.3451,-0.355,-0.3554,-0.3559,-0.3632,-0.3606,-0.3686,-0.3668,-0.3627,-0.3667,-0.3667,-0.3725,-0.3733,-0.3752,-0.3813,-0.3818,-0.3791,-0.3793,-0.3795,-0.3796,0,0,0,0,0,0,0,-0.3435,-0.3447,-0.3561,-0.3551,-0.3557,-0.3568,-0.3579,-0.3621,-0.3676,-0.3631,-0.3634,-0.3646,-0.3727,-0.3748,-0.3755,-0.3819,-0.379,-0.3794,-0.3797,-0.3799,-0.3912,-0.3912,0,0,0,0,0,0,-0.3424,-0.3442,-0.3557,-0.3564,-0.3498,-0.3571,-0.3583,-0.3609,-0.3676,-0.3686,-0.3646,-0.3647,-0.374,-0.375,-0.3759,-0.38,-0.3795,-0.3799,-0.3802,-0.3911,-0.3912,-0.3912,0,0,0,0,0,0,-0.342,-0.3434,-0.3553,-0.3504,-0.352,-0.3574,-0.3602,-0.3611,-0.3632,-0.3687,-0.3697,-0.3657,-0.3741,-0.3752,-0.3796,-0.3805,-0.3801,-0.3805,-0.3911,-0.3911,-0.3912,-0.3884,0,0,0,0,0,0,-0.3416,-0.3432,-0.3445,-0.3504,-0.3522,-0.3589,-0.3602,-0.3613,-0.3639,-0.3642,-0.37,-0.3709,-0.3741,-0.3789,-0.38,-0.381,-0.3808,-0.391,-0.3911,-0.3912,-0.3884,-0.3883,-0.3882,0,0,0,0,0,-0.341,-0.3433,-0.3445,-0.3459,-0.3539,-0.3589,-0.36,-0.3636,-0.364,-0.3653,-0.3688,-0.3708,-0.3801,-0.3793,-0.3806,-0.3818,-0.391,-0.3911,-0.3912,-0.3884,-0.3883,-0.3882,0,0,0,0,0,0,-0.3373,-0.3441,-0.3456,-0.3498,-0.3538,-0.3597,-0.3614,-0.3634,-0.3673,-0.3674,-0.3718,-0.373,-0.377,-0.3798,-0.3788,-0.3852,-0.3857,-0.3861,-0.3832,-0.3832,-0.3831,-0.3824,-0.3812,0,0,0,0,0,-0.337,-0.3405,-0.3462,-0.3494,-0.3513,-0.356,-0.3583,-0.3608,-0.365,-0.3667,-0.3706,-0.3746,-0.3785,-0.381,-0.3848,-0.3888,-0.3901,-0.3902,-0.3901,-0.39,-0.3903,-0.3927,-0.3928,-0.3915,-0.3915,-0.3915,0,0,-0.3363,-0.3405,-0.3424,-0.3487,-0.3521,-0.3556,-0.3574,-0.361,-0.3637,-0.3673,-0.3717,-0.3746,-0.3794,-0.3836,-0.3856,-0.386,-0.391,-0.3902,-0.39,-0.3904,-0.3928,-0.3929,-0.393,-0.3916,-0.3916,-0.3916,0,0,-0.337,-0.3404,-0.3435,-0.3468,-0.3519,-0.355,-0.3557,-0.3614,-0.3635,-0.3679,-0.3707,-0.3739,-0.3805,-0.3838,-0.3863,-0.3882,-0.3902,-0.3894,-0.389,-0.3912,-0.3913,-0.3914,-0.3922,-0.3924,-0.3896,-0.3896,-0.3896,0,-0.3355,-0.341,-0.3448,-0.3484,-0.3511,-0.3545,-0.3576,-0.3607,-0.3667,-0.3685,-0.3689,-0.3772,-0.3807,-0.3857,-0.3862,-0.3881,-0.3891,-0.3888,-0.391,-0.3912,-0.3913,-0.3921,-0.3923,-0.3895,-0.3895,-0.3895,-0.3895,0,-0.339,-0.3427,-0.3446,-0.3504,-0.3533,-0.3566,-0.361,-0.3634,-0.3656,-0.3687,-0.3732,-0.3775,-0.3823,-0.3836,-0.3858,-0.389,-0.3891,-0.3902,-0.3908,-0.3912,-0.392,-0.3923,-0.3893,-0.3893,-0.3894,-0.3894,0,0,-0.3376,-0.3455,-0.3462,-0.3489,-0.3547,-0.3577,-0.3611,-0.3658,-0.3679,-0.3719,-0.375,-0.3804,-0.3815,-0.3844,-0.3869,-0.3889,-0.3902,-0.3898,-0.3899,-0.3898,-0.394,-0.3932,-0.3935,-0.3915,-0.3915,-0.3916,-0.3936,0,-0.3391,-0.3456,-0.3491,-0.354,-0.3575,-0.3608,-0.3638,-0.3677,-0.3707,-0.3741,-0.3773,-0.3812,-0.3822,-0.384,-0.3861,-0.3896,-0.3911,-0.3895,-0.3944,-0.3945,-0.3932,-0.3939,-0.3931,-0.3948,-0.394,-0.394,-0.3941,0,-0.3418,-0.3458,-0.3511,-0.3566,-0.3582,-0.3608,-0.3655,-0.3687,-0.3732,-0.3752,-0.3784,-0.3809,-0.3847,-0.385,-0.3903,-0.3891,-0.3913,-0.3933,-0.3934,-0.3941,-0.3944,-0.3947,-0.3954,-0.3957,-0.3946,-0.3945,-0.3945,0,-0.3403,-0.3471,-0.3511,-0.3533,-0.3598,-0.3616,-0.3644,-0.3688,-0.3715,-0.3755,-0.3773,-0.3816,-0.3841,-0.3874,-0.3911,-0.3909,-0.396,-0.3966,-0.3978,-0.3977,-0.3988,-0.3987,-0.4,-0.4,-0.4,-0.4,-0.4,0,-0.3417,-0.3448,-0.3506,-0.3531,-0.3567,-0.3607,-0.3641,-0.3672,-0.3711,-0.3742,-0.3773,-0.3802,-0.3848,-0.3882,-0.3911,-0.395,-0.3961,-0.3978,-0.3986,-0.3976,-0.3974,-0.3992,-0.3992,-0.4001,-0.4001,-0.4,-0.4,0,-0.3407,-0.3447,-0.3494,-0.3551,-0.3566,-0.359,-0.364,-0.3665,-0.3696,-0.3735,-0.3747,-0.3795,-0.3837,-0.3877,-0.3933,-0.3952,-0.3992,-0.4001,-0.3977,-0.3982,-0.3992,-0.399,-0.4017,-0.4023,-0.4018,-0.4018,-0.4018,0,-0.3414,-0.3438,-0.3499,-0.3522,-0.355,-0.3587,-0.3614,-0.3654,-0.3681,-0.3734,-0.3753,-0.3798,-0.3836,-0.3901,-0.3941,-0.3984,-0.3995,-0.4002,-0.4002,-0.3992,-0.3997,-0.3995,-0.3998,-0.4001,-0.4001,-0.4001,-0.4001,0,-0.3421,-0.344,-0.3478,-0.3523,-0.3555,-0.3592,-0.3631,-0.3648,-0.3696,-0.3724,-0.3768,-0.3797,-0.3855,-0.3899,-0.3946,-0.3975,-0.3996,-0.4,-0.4006,-0.3997,-0.3982,-0.3991,-0.3976,-0.4,-0.4,-0.4,-0.4,-0.4,-0.342,-0.3444,-0.3491,-0.3532,-0.3565,-0.3601,-0.3628,-0.3662,-0.3699,-0.375,-0.3771,-0.3815,-0.386,-0.3926,-0.3954,-0.3989,-0.3994,-0.4001,-0.4003,-0.4005,-0.4003,-0.3975,-0.3998,-0.3998,-0.3998,-0.3998,-0.3998,0,-0.343,-0.3461,-0.3499,-0.3552,-0.3585,-0.3602,-0.3646,-0.3672,-0.3711,-0.3751,-0.3787,-0.3838,-0.388,-0.3924,-0.3969,-0.3988,-0.3999,-0.3999,-0.3998,-0.4005,-0.3996,-0.3987,-0.3989,-0.3989,-0.3989,-0.3989,-0.3989,-0.3989,-0.3439,-0.348,-0.3504,-0.3563,-0.3594,-0.3638,-0.3662,-0.3694,-0.3727,-0.3782,-0.3817,-0.3845,-0.3887,-0.3935,-0.3975,-0.3987,-0.4002,-0.3999,-0.4013,-0.4005,-0.4005,-0.4006,-0.3998,-0.4002,-0.4002,-0.4019,-0.402,-0.402]}]]